Lapse_Rate
6.0 5.9 5.7 5.7 5.6 5.8 6.0 6.2 6.1 5.7 5.7 5.4 5.5 5.1 5.1 5.6 5.5 5.5 5.6 5.6 5.8 5.9 5.9 5.9 5.8 5.7 5.6 5.6 5.7 5.5 5.4 5.3 5.2 5.2 5.3 5.3 5.4 5.3 5.4 5.3 5.3 5.1 5.1 5.3
5.9 5.6 5.8 5.9 6.0 6.1 6.1 6.0 6.0 5.7 5.6 5.5 5.5 4.9 5.0 5.8 5.7 5.4 5.2 5.4 5.5 5.5 5.6 5.5 5.4 5.3 5.3 5.2 5.2 5.4 5.3 5.1 5.2 5.2 5.0 4.9 5.0 4.9 4.9 4.9 4.8 4.8 4.8 4.8
6.0 6.1 6.2 6.3 6.4 6.2 6.0 5.9 5.7 5.5 5.2 5.5 5.5 5.1 5.3 5.9 5.6 5.5 5.4 5.5 5.6 5.4 5.3 5.1 4.9 4.8 4.8 4.8 4.8 4.9 5.0 5.1 4.8 4.8 4.9 4.7 4.5 4.5 4.6 4.6 4.6 4.7 4.7 4.6
6.1 6.2 6.3 6.3 6.2 6.0 5.9 5.9 5.7 5.6 5.3 5.0 4.9 4.4 5.1 5.3 5.3 5.6 5.6 5.4 5.4 5.5 5.3 5.0 4.7 4.5 4.5 4.5 4.5 4.6 4.6 4.7 4.6 4.3 4.4 4.5 4.7 4.9 4.9 4.8 5.0 5.0 4.9 4.9
6.3 6.3 6.3 6.2 6.3 6.1 5.8 5.8 5.6 5.4 5.1 4.3 4.8 4.6 4.1 4.6 4.8 5.4 5.6 5.7 5.9 5.8 5.1 4.8 4.4 4.2 4.1 4.0 4.0 4.0 4.0 4.1 4.1 4.0 4.1 4.4 4.6 4.7 4.9 5.1 5.2 5.3 5.4 5.4
6.2 6.2 6.2 6.2 6.1 5.7 5.5 5.5 5.5 4.9 4.5 3.5 5.3 5.2 3.8 4.5 4.8 5.0 5.4 5.6 5.8 5.7 5.4 5.2 4.9 4.5 4.3 4.2 4.0 4.1 4.3 4.5 4.5 4.5 4.5 4.6 4.8 4.8 5.0 5.2 5.4 5.4 5.6 5.8
5.8 6.0 6.0 5.8 5.6 5.6 5.5 5.1 5.1 3.8 3.5 3.6 5.5 5.2 4.8 4.6 5.0 4.5 5.2 5.6 5.7 5.5 5.5 5.2 5.1 4.9 4.7 4.7 4.6 4.5 4.6 4.6 4.7 4.7 4.6 4.5 4.5 4.5 4.5 4.4 4.5 4.4 4.6 4.7
5.3 5.1 5.7 5.7 5.7 5.4 5.7 5.3 5.6 4.9 4.7 4.9 5.4 5.2 5.2 5.7 5.4 5.1 4.9 5.2 5.0 4.9 5.2 5.1 5.2 5.0 4.8 4.7 4.5 4.5 4.5 4.5 4.4 4.2 3.9 3.6 3.4 3.4 3.3 3.2 3.1 3.2 3.1 3.2
5.2 5.1 5.3 5.5 5.6 5.4 4.6 5.0 5.4 5.0 5.2 4.8 5.4 5.4 4.7 5.5 5.2 5.0 5.2 4.7 4.8 5.0 4.6 4.8 4.4 4.1 4.2 4.2 4.0 3.9 3.8 3.6 3.4 3.1 2.7 2.7 2.5 2.4 2.3 2.2 2.1 2.1 2.0 2.1
5.4 4.9 5.0 5.1 5.1 5.1 5.0 5.0 4.9 5.1 4.0 4.5 5.1 5.7 6.0 4.9 4.8 5.2 4.9 4.5 4.8 4.7 4.5 4.3 4.2 4.1 3.9 3.7 3.4 3.1 2.9 2.7 2.4 2.1 1.9 1.9 1.8 1.7 1.7 1.6 1.6 1.7 1.7 1.7
5.1 4.6 4.5 4.5 4.6 4.8 4.9 4.9 4.8 5.2 5.5 4.2 4.1 4.7 5.3 5.2 5.3 4.8 4.3 4.7 4.5 4.4 4.1 3.8 3.6 3.5 3.1 3.0 2.8 2.5 2.2 2.0 1.8 1.8 1.8 1.8 1.8 1.9 1.9 2.1 2.2 2.2 2.1 2.3
5.0 4.3 4.2 4.3 4.5 4.5 4.4 4.7 4.9 4.8 5.1 5.6 5.8 4.3 4.8 5.1 4.8 4.4 4.8 4.3 4.0 3.7 3.6 3.5 3.2 3.0 2.8 2.6 2.3 2.1 1.9 1.8 1.9 1.9 1.9 2.0 2.3 2.5 2.8 3.1 3.7 4.2 4.5 4.7
4.4 4.0 4.2 4.1 4.3 4.2 4.1 4.5 5.1 5.2 5.0 4.7 5.4 4.5 5.2 5.1 4.7 4.5 4.1 3.8 3.6 3.5 3.3 3.2 3.0 2.8 2.5 2.4 2.1 1.9 1.8 2.0 2.3 2.3 2.6 3.2 3.8 4.2 4.6 5.0 5.2 5.4 5.6 5.9
4.3 4.0 4.4 4.7 4.9 4.0 3.9 4.3 4.9 4.8 4.5 4.9 4.8 5.4 5.0 4.8 4.4 4.2 3.9 3.8 3.6 3.3 3.1 2.9 2.6 2.4 2.2 2.0 1.9 1.9 2.3 3.0 3.3 3.8 4.5 5.1 5.4 5.7 5.7 5.8 5.9 5.9 5.9 6.0
4.3 3.9 4.3 4.0 4.3 4.6 4.7 4.6 5.0 4.3 4.4 4.4 4.9 5.1 4.9 4.9 4.8 4.4 4.0 3.7 3.3 3.1 3.0 2.6 2.4 2.1 2.0 2.1 2.3 2.8 3.7 4.3 4.6 5.3 5.8 6.0 6.1 5.9 6.0 6.0 6.2 6.5 6.9 7.0
4.5 3.9 3.7 3.6 4.2 4.4 4.1 4.6 4.6 4.6 4.4 4.3 4.4 4.5 4.7 4.7 4.5 4.1 3.6 3.3 3.1 3.2 2.6 2.3 2.0 2.1 2.4 2.7 3.2 4.1 4.8 5.4 5.8 6.1 6.2 6.1 6.1 6.1 6.2 6.7 6.7 6.6 6.5 6.5
4.1 4.3 3.6 3.1 4.0 4.0 3.3 4.5 4.5 4.5 4.3 4.7 4.6 4.9 4.5 4.1 3.7 3.4 3.2 3.1 3.1 2.6 2.2 2.1 2.2 2.7 3.3 3.8 4.3 5.2 5.8 6.0 6.0 6.1 6.1 6.0 6.3 6.5 6.4 6.3 6.3 6.4 6.4 6.2
4.0 4.2 3.8 3.6 3.8 2.4 3.8 4.2 4.4 4.6 4.5 4.4 4.3 4.3 3.9 3.7 3.5 3.2 3.0 2.8 2.2 2.1 2.2 2.5 2.9 3.7 4.2 4.7 5.3 6.0 6.1 6.1 6.1 6.2 6.2 6.3 6.2 6.0 6.1 6.1 6.1 6.1 5.8 5.9
4.1 3.9 3.7 3.7 3.6 4.2 4.1 4.5 4.5 4.2 3.9 4.0 4.0 3.6 3.4 3.3 3.1 2.8 2.6 2.2 2.0 2.0 2.2 2.7 3.6 4.4 4.9 5.4 5.9 6.3 6.2 6.1 6.1 6.2 6.2 5.9 5.6 5.7 5.7 5.6 5.5 5.8 5.7 5.9
4.6 4.2 3.6 3.5 3.4 3.1 3.8 4.1 4.1 3.8 3.4 3.7 3.5 3.3 3.0 2.7 2.5 2.4 2.0 1.9 2.2 2.5 2.9 3.7 4.7 5.3 5.6 6.0 6.3 6.4 6.2 6.0 6.1 6.1 5.7 5.4 5.4 5.4 5.4 5.3 5.0 5.1 5.1 5.5
4.4 3.9 3.8 3.8 3.3 3.5 3.9 3.9 3.8 3.5 3.7 3.4 3.1 2.7 2.7 2.5 2.3 2.2 2.3 2.5 2.7 3.1 3.9 4.7 5.4 5.9 6.2 6.4 6.3 6.3 6.1 5.9 6.0 5.6 5.3 5.3 5.5 5.3 5.2 4.9 5.1 5.0 5.0 5.2
4.4 4.4 3.8 3.1 3.3 3.2 4.1 4.0 3.9 3.9 3.6 3.3 2.9 2.8 2.7 2.6 2.6 2.6 2.7 2.9 3.3 4.0 5.0 5.7 6.1 6.6 6.7 6.5 6.3 6.2 5.9 5.8 5.7 5.4 5.4 5.4 5.4 5.2 4.9 4.8 4.6 4.6 4.7 4.9
4.2 4.5 4.1 4.1 4.0 4.4 4.1 4.2 3.7 3.7 3.4 3.2 3.0 2.9 2.9 2.8 2.8 3.1 3.3 3.6 4.2 5.0 5.7 5.9 6.4 6.9 6.8 6.6 6.2 6.0 5.8 5.6 5.3 5.4 5.4 5.3 5.5 5.0 4.7 4.4 4.5 4.7 4.6 4.8
4.1 4.3 4.0 4.1 4.2 4.2 4.1 4.1 3.9 3.6 3.3 3.2 3.1 3.1 3.0 3.1 3.2 3.5 3.8 4.4 5.1 5.7 6.1 6.5 6.8 7.0 6.9 6.7 6.2 5.9 5.6 5.3 5.3 5.4 5.4 5.4 5.1 5.2 4.8 4.7 4.4 4.6 4.5 4.6
4.2 4.2 4.3 4.2 4.4 4.2 4.2 4.0 3.9 3.6 3.4 3.4 3.3 3.2 3.3 3.4 3.7 4.1 4.6 5.0 5.6 6.0 6.4 6.8 6.9 7.0 6.8 6.5 6.3 5.9 5.7 5.2 5.3 5.2 5.3 5.3 4.9 4.7 4.6 4.6 4.3 4.4 4.4 4.3
4.4 4.0 4.0 3.9 4.3 4.5 4.3 4.0 3.7 3.6 3.6 3.6 3.5 3.6 3.6 3.7 4.3 4.7 5.1 5.4 5.7 6.1 6.4 6.9 6.9 6.8 6.6 6.5 6.2 5.9 5.5 5.2 4.9 5.1 5.3 4.9 4.8 4.6 4.5 4.6 4.8 4.4 4.4 4.5
Wind_Speed
1 2 4 2 0 4 5 6 7 6 5 5 9 8 13 9 7 8 8 7 7 8 7 6 7 7 7 7 8 10 11 12 10 9 9 8 9 7 11 13 19 18 19 19
2 0 6 6 5 4 5 6 7 4 7 3 8 7 13 13 7 7 8 8 8 7 7 6 7 7 7 7 7 9 9 10 8 7 7 6 8 5 14 16 16 17 19 19
2 3 3 2 2 3 5 5 5 3 2 8 5 7 9 8 7 7 8 9 7 7 7 6 6 7 7 7 7 8 7 8 8 13 10 9 8 8 6 8 9 15 20 19
3 1 1 2 3 2 4 6 5 4 2 3 3 5 5 13 9 7 7 7 7 7 6 5 6 6 6 6 6 6 7 6 10 13 8 9 7 9 8 8 12 17 20 19
2 3 3 4 2 4 3 4 4 4 5 5 5 3 3 12 7 9 8 8 8 7 5 5 5 5 5 5 6 6 7 7 8 10 7 6 8 8 8 9 12 12 18 18
3 2 3 4 4 4 2 3 5 3 1 2 11 9 3 2 1 12 9 9 8 6 5 4 5 6 6 6 6 6 7 7 7 7 8 9 10 11 10 10 10 9 8 13
3 4 3 2 2 2 0 2 3 2 0 6 4 0 3 6 7 7 13 9 8 5 5 5 6 6 5 6 6 7 7 7 8 8 9 8 10 11 12 12 10 12 9 9
3 3 2 1 2 2 5 1 4 5 3 3 6 6 3 6 8 11 10 9 7 5 5 5 6 6 6 7 7 7 7 9 9 10 11 10 11 8 9 10 10 10 10 11
1 3 3 3 0 0 3 4 2 3 5 4 5 4 3 6 6 7 7 7 6 5 5 6 6 6 6 7 7 8 8 10 11 12 11 12 12 13 12 14 13 10 14 14
2 2 1 2 2 3 1 3 1 1 3 5 4 6 2 7 7 7 7 5 6 5 6 6 6 6 6 6 6 7 8 10 11 12 12 12 14 14 14 14 16 16 16 19
3 2 2 1 6 5 3 2 3 0 2 3 5 3 3 6 8 9 7 6 5 5 6 6 6 6 7 7 7 8 9 11 12 12 12 13 14 16 16 16 17 17 19 19
1 1 3 3 3 4 2 2 2 4 4 4 4 8 4 8 8 9 7 6 6 6 6 6 7 7 7 8 8 8 10 11 12 12 14 15 15 16 17 17 19 21 19 22
2 3 3 0 1 2 3 4 3 2 1 7 5 6 5 7 7 6 5 5 4 6 6 6 7 7 7 7 7 9 9 11 12 13 15 17 17 17 18 18 19 17 19 20
2 3 6 5 2 4 4 5 6 7 3 8 13 11 6 5 5 5 4 4 6 4 4 4 6 6 6 7 8 10 12 12 14 15 16 18 18 19 18 19 19 20 19 21
1 4 5 6 6 5 3 6 8 11 10 6 4 6 1 3 4 1 5 3 6 6 5 6 7 8 9 10 11 12 13 15 15 17 18 19 19 19 19 20 20 20 20 20
3 3 4 3 8 8 5 8 10 11 9 9 5 1 1 3 4 0 4 6 7 5 7 9 10 11 12 12 14 15 16 16 17 18 20 20 20 20 20 21 20 21 21 21
5 2 2 3 2 6 7 10 4 3 3 4 2 4 1 2 3 2 5 6 6 8 11 12 12 11 12 14 15 16 17 18 19 19 20 20 21 21 21 21 21 22 22 22
4 3 1 3 2 4 2 2 3 4 3 4 6 5 3 3 5 5 2 4 6 10 11 12 11 12 13 15 15 16 17 18 20 20 20 21 21 22 23 23 23 23 21 22
2 3 2 2 4 3 1 3 3 4 3 0 6 4 3 2 5 2 6 6 5 7 9 10 10 13 14 15 16 16 18 19 20 21 21 21 22 24 23 24 24 22 20 20
1 2 2 2 3 5 3 4 4 3 4 3 4 4 1 3 2 3 7 5 6 7 8 11 12 12 14 15 15 17 19 19 20 21 22 23 23 24 24 23 23 21 20 21
3 2 5 5 4 4 5 7 4 5 5 6 5 1 1 1 2 5 7 7 6 7 10 12 11 12 14 15 16 17 19 20 21 22 22 23 24 23 22 22 19 19 18 18
6 6 3 2 2 8 8 4 5 4 4 5 4 2 2 3 6 7 6 8 9 10 12 11 12 13 15 16 15 18 19 20 21 22 23 24 23 19 17 21 16 20 17 17
3 3 4 5 4 0 8 5 5 4 5 4 3 3 2 4 5 6 7 7 7 10 10 10 12 14 15 15 15 18 20 21 22 22 23 22 22 20 18 18 18 14 15 13
2 2 1 2 2 5 6 5 5 4 4 6 4 2 1 4 5 6 6 7 9 9 11 11 13 14 16 16 17 17 19 20 21 23 22 20 19 22 17 13 12 12 12 13
1 5 4 2 4 5 4 7 7 6 5 4 3 1 2 3 5 5 5 7 8 10 11 11 11 14 16 17 18 18 19 19 20 20 19 19 16 16 17 13 12 12 12 16
4 5 4 4 7 4 2 7 7 7 6 4 2 1 3 3 4 5 5 6 8 9 10 11 13 14 16 17 18 18 19 19 19 19 16 15 15 14 14 13 13 23 26 29
Wind_Direction
114 248 218 217 189 15 337 322 317 75 114 179 229 228 172 170 184 160 153 137 114 106 98 78 67 51 44 37 29 24 19 12 17 7 1 357 355 339 347 1 356 349 354 345
159 332 40 49 31 343 304 284 272 88 138 159 262 253 164 168 175 169 161 132 124 117 89 72 58 43 37 34 20 24 21 11 10 8 355 348 340 338 328 355 340 342 343 335
294 89 58 352 151 263 242 259 305 345 123 219 284 260 167 154 141 89 73 90 81 84 80 56 50 40 29 26 15 13 9 11 359 357 349 342 333 330 335 336 332 334 333 332
36 106 206 207 272 40 287 15 14 323 350 241 160 286 143 161 142 144 133 130 125 116 86 65 40 29 30 21 6 1 357 2 356 352 348 344 333 329 326 321 319 323 324 321
156 160 188 235 27 14 64 10 337 306 272 307 219 262 327 124 179 173 162 136 110 94 81 70 46 22 27 20 2 353 345 356 351 345 339 331 320 313 313 312 312 312 312 314
61 76 357 27 64 24 61 300 242 249 245 306 226 190 155 151 359 167 143 122 125 118 113 71 41 25 6 9 357 345 344 346 340 331 323 317 312 310 307 305 303 303 301 299
151 149 99 319 197 124 48 321 329 324 323 229 28 257 98 51 337 172 137 129 117 128 71 38 21 4 350 353 345 338 344 331 327 323 317 313 306 304 302 304 303 304 303 298
185 301 142 40 52 138 190 217 184 257 247 247 156 235 140 59 50 83 103 111 113 84 46 20 14 356 348 345 338 334 327 321 324 323 318 316 309 305 303 302 301 296 293 293
247 160 120 33 6 256 164 205 32 310 271 282 214 76 132 112 96 94 107 132 119 61 21 10 1 352 343 336 331 324 325 327 324 320 317 312 310 308 303 299 296 293 290 289
131 256 305 119 247 229 284 322 143 289 290 267 295 303 202 184 164 163 146 161 88 36 11 3 349 340 337 324 318 324 323 318 312 309 305 303 301 299 297 296 292 290 288 287
20 129 133 147 208 173 158 224 205 265 209 238 305 236 4 173 166 170 141 89 55 16 358 342 333 331 323 325 321 316 312 307 303 299 296 296 296 294 292 288 288 288 288 288
66 325 249 187 70 25 351 347 178 160 240 227 241 271 61 75 56 93 93 65 28 358 333 332 324 323 318 312 309 304 302 299 299 300 299 296 293 291 289 288 288 288 286 284
160 229 297 276 38 360 218 190 224 22 81 205 258 264 108 104 100 84 75 44 341 296 309 312 318 310 304 303 304 304 301 299 301 303 302 299 295 293 290 288 287 286 284 283
17 268 212 214 118 150 186 209 211 189 202 257 234 259 167 162 114 63 25 318 284 302 296 313 315 303 304 303 304 308 309 310 308 306 302 299 297 295 292 290 287 285 283 281
238 246 253 281 312 323 252 223 245 224 232 237 266 305 205 107 95 171 231 281 321 306 340 331 322 317 314 313 314 314 311 311 310 308 303 299 298 296 294 291 289 286 281 277
152 253 15 291 269 274 284 273 250 252 260 278 298 305 207 175 207 3 340 328 315 346 337 329 324 321 320 320 318 317 315 313 310 306 302 301 301 301 297 294 292 289 285 281
165 223 147 249 26 313 271 251 266 238 88 121 178 190 187 42 347 317 302 314 341 340 331 328 322 320 321 319 318 317 313 310 308 305 305 304 303 301 299 296 294 290 287 284
177 178 50 279 10 258 204 108 134 111 111 108 106 113 148 219 286 267 277 34 345 331 325 321 320 320 319 318 316 312 311 310 308 307 307 306 304 302 300 298 294 290 287 283
48 173 187 213 215 291 172 223 177 138 261 88 127 159 214 346 297 336 58 16 331 319 322 319 318 317 318 315 313 312 313 310 310 309 309 307 305 303 300 297 294 290 287 284
9 16 150 148 210 251 197 136 75 81 279 189 126 184 159 12 45 237 6 0 329 323 321 318 319 320 315 314 316 314 312 312 311 311 309 307 303 301 298 294 295 292 288 284
164 198 205 227 242 282 168 144 146 90 241 157 190 122 15 276 228 306 333 325 327 324 324 324 327 318 314 316 317 313 313 312 311 310 308 306 304 302 301 298 297 295 297 296
164 165 190 186 227 269 144 107 178 191 105 149 152 149 308 317 320 311 320 329 329 329 332 330 323 318 316 317 319 315 313 311 312 310 308 309 308 307 306 305 309 305 302 302
206 182 171 176 207 182 160 98 95 99 127 150 129 65 17 322 309 320 325 322 327 330 326 324 321 319 318 318 319 315 311 314 314 311 313 313 312 311 310 315 312 314 312 309
171 152 179 99 147 164 149 105 128 117 118 123 109 92 343 297 321 316 320 324 325 327 324 326 323 322 317 319 317 312 312 317 313 316 317 317 318 316 326 316 320 316 318 316
163 129 166 98 116 90 191 172 161 140 127 144 165 193 294 303 299 310 320 322 323 323 320 324 327 320 315 315 315 314 319 317 320 317 319 322 319 325 324 326 326 327 323 326
185 183 159 209 150 144 148 161 128 154 174 152 109 331 311 347 327 335 322 318 320 306 332 329 323 315 313 315 312 318 319 325 319 324 326 323 327 330 329 333 332 335 343 342